Dewpoint
57 58 58 59 61 64 65 66 67 69 70 70 72 71 71 71 70 72 72 72 70 71 71 71 72 72 71 71 72 72 71 71 71
56 57 58 58 61 63 65 66 68 69 71 71 72 73 72 72 72 72 72 73 72 72 72 71 71 71 72 72 72 72 72 71 71
54 56 57 58 58 62 64 66 68 70 71 70 65 68 72 73 73 73 72 71 71 71 72 71 71 72 71 71 72 72 72 71 71
52 55 55 59 60 61 65 65 68 71 71 61 61 64 71 73 72 73 73 72 72 72 72 71 71 72 72 72 71 71 71 70 70
55 55 55 58 60 64 65 68 69 69 69 68 71 72 71 70 71 71 70 69 71 71 71 72 71 71 71 71 71 71 71 71 71
57 57 57 58 62 61 59 67 68 69 68 69 67 67 67 67 64 62 63 64 64 66 66 67 68 70 70 70 71 71 71 71 71
55 56 59 63 63 65 65 66 66 66 64 63 62 63 63 64 65 66 66 66 66 66 67 66 67 67 67 68 69 70 70 71 71
58 61 66 65 65 65 65 66 65 65 64 64 64 64 65 65 66 65 65 64 64 64 65 65 65 65 65 66 67 65 66 67 69
58 60 65 64 65 63 64 65 65 65 64 65 64 64 64 64 64 64 63 63 64 64 64 65 65 65 65 65 66 65 65 65 63
57 61 65 64 65 65 64 64 65 65 65 64 63 63 64 64 64 63 63 63 63 62 62 63 62 63 64 64 64 62 62 64 63
58 62 65 66 66 66 66 65 65 65 64 64 62 63 63 63 62 61 61 60 60 60 61 60 60 61 61 61 62 62 61 63 61
60 65 66 66 67 66 65 64 64 64 63 63 63 62 61 61 60 60 58 57 58 59 58 57 57 59 59 59 61 60 59 60 60
64 65 66 67 67 64 64 63 62 62 61 61 61 60 60 60 59 58 57 58 58 57 57 57 58 58 59 60 59 56 55 58 60
64 64 62 64 65 62 62 61 61 61 61 59 60 60 59 58 58 58 56 56 56 58 59 59 60 60 61 60 57 53 53 53 55
63 65 63 64 62 61 61 63 61 60 59 59 59 58 57 56 56 57 58 56 57 57 57 57 56 57 57 59 56 53 51 52 52
64 63 62 62 61 61 62 62 61 59 58 58 57 56 55 55 55 56 56 54 54 54 54 55 53 53 54 55 52 49 50 50 50
61 62 62 61 60 59 59 60 60 58 57 56 55 54 54 54 54 54 53 53 53 53 54 52 52 53 53 53 49 48 47 47 47
61 61 61 60 59 59 59 58 56 56 56 55 54 54 54 54 54 53 53 53 53 54 53 53 53 52 51 47 46 47 45 44 46
60 59 60 59 58 58 57 56 55 55 55 54 53 53 53 53 53 53 52 52 52 51 49 49 47 47 48 48 46 45 44 44 44
58 59 59 58 58 57 56 56 55 55 55 55 53 52 52 53 53 53 52 52 51 50 50 46 44 44 44 45 44 43 43 43 44
Lifted_Index
-2 -2 -2 -3 -3 -3 -4 -4 -4 -5 -5 -5 -5 -6 -5 -5 -5 -5 -6 -6 -6 -6 -5 -4 -4 -4 -3 -3 -3 -3 -3 -3 -3
-2 -2 -2 -3 -3 -3 -4 -4 -5 -5 -5 -5 -6 -6 -6 -6 -6 -6 -6 -6 -6 -6 -5 -5 -4 -4 -4 -3 -3 -3 -3 -3 -3
-2 -2 -2 -3 -3 -3 -4 -4 -5 -6 -6 -5 -5 -5 -6 -6 -6 -6 -7 -6 -6 -6 -5 -5 -5 -4 -4 -3 -3 -3 -3 -3 -3
-2 -2 -2 -3 -3 -4 -4 -5 -6 -6 -6 -5 -5 -5 -6 -6 -6 -6 -6 -6 -6 -5 -5 -5 -5 -4 -4 -4 -4 -3 -3 -3 -3
-1 -2 -2 -3 -4 -4 -5 -6 -6 -7 -7 -6 -5 -5 -5 -5 -5 -5 -5 -4 -4 -4 -4 -4 -4 -4 -4 -4 -3 -3 -3 -3 -3
-1 -1 -2 -3 -4 -5 -5 -6 -6 -6 -6 -6 -5 -4 -3 -3 -3 -3 -2 -2 -1 -1 -1 -2 -2 -2 -2 -2 -2 -2 -3 -3 -3
-1 -1 -2 -3 -4 -5 -5 -5 -5 -4 -4 -4 -3 -1 -1 -1 -1 -1 -1 -0 -0 0 0 0 0 0 -0 -0 -1 -1 -1 -2 -2
-1 -2 -4 -4 -5 -5 -5 -4 -3 -3 -3 -2 -1 -1 -0 -0 -0 -0 0 0 1 1 1 1 1 1 1 1 1 0 0 -0 -0
-2 -3 -4 -5 -5 -5 -4 -3 -2 -2 -2 -1 -1 -1 -0 -0 0 1 1 1 2 2 2 2 2 2 2 2 2 2 1 1 1
-2 -3 -4 -5 -4 -4 -4 -3 -2 -2 -2 -1 -1 -0 0 0 1 1 2 2 3 3 3 3 3 3 3 3 3 2 2 2 2
-2 -3 -4 -4 -3 -3 -3 -3 -2 -2 -1 -1 -0 -0 0 1 1 2 3 3 4 4 4 5 5 5 4 4 4 4 3 3 3
-2 -3 -4 -4 -3 -2 -3 -2 -2 -1 -1 -0 0 0 1 1 2 3 4 5 5 5 6 6 6 6 6 5 5 5 5 4 4
-3 -3 -3 -3 -2 -2 -3 -2 -2 -1 -1 -0 1 1 2 3 4 5 5 6 6 6 7 7 7 6 6 6 6 6 6 6 6
-3 -3 -2 -1 -2 -3 -3 -3 -2 -2 -1 -0 1 2 3 4 5 6 6 6 7 7 7 6 6 6 6 6 6 6 6 7 7
-2 -2 -2 -2 -2 -3 -3 -3 -3 -2 -2 -0 1 3 4 5 6 6 6 7 7 7 7 7 7 7 7 6 6 6 6 6 7
-3 -3 -3 -3 -3 -3 -3 -3 -2 -2 -1 1 3 4 5 5 6 6 7 7 8 8 8 8 7 7 7 7 7 7 7 6 7
-4 -4 -3 -3 -3 -3 -3 -2 -2 -1 1 3 4 5 5 5 5 6 7 7 8 8 8 8 8 8 8 8 8 8 7 7 7
-4 -4 -4 -3 -3 -3 -2 -2 -1 1 3 5 5 5 5 5 5 6 7 7 7 8 8 8 8 9 9 10 9 9 8 7 7
-3 -3 -3 -3 -3 -2 -2 -1 0 2 4 5 5 5 5 5 5 6 6 7 7 7 7 8 8 9 10 11 11 9 8 8 7
-3 -3 -3 -3 -3 -2 -2 -1 1 3 4 4 5 5 5 5 5 6 6 7 7 7 7 7 8 9 10 11 11 10 9 8 8